timestamp,surface_pressure_avg,surface_temp_avg,battery_voltage,lat,long
2018-11-22 00:00:00+00:00,333.2797,6.0,12.81,47.84626,-54.09684
2018-11-22 00:10:00+00:00,324.1514,5.99,12.73,47.84626,-54.09684
2018-11-22 00:20:00+00:00,324.7897,6.0,12.81,47.84626,-54.09684
2018-11-22 00:30:00+00:00,322.578,6.08,12.81,47.84626,-54.09684
2018-11-22 00:40:00+00:00,316.128,6.09,12.81,47.84626,-54.09684
2018-11-22 00:50:00+00:00,313.1779,6.09,12.81,47.84626,-54.09684
2018-11-22 01:00:00+00:00,310.9797,6.1,12.73,47.84626,-54.09684
2018-11-22 01:10:00+00:00,299.188,6.09,12.73,47.84626,-54.09684
2018-11-22 01:20:00+00:00,288.1297,6.0,12.81,47.84626,-54.09684
2018-11-22 01:30:00+00:00,283.8814,6.0,12.81,47.84626,-54.09684
2018-11-22 01:40:00+00:00,274.973,5.99,12.81,47.84626,-54.09684
2018-11-22 01:50:00+00:00,258.9031,6.0,12.81,47.84626,-54.09684
2018-11-22 02:00:00+00:00,247.3398,6.0,12.73,47.84626,-54.09684
2018-11-22 02:10:00+00:00,242.3448,5.99,12.73,47.84626,-54.09684
2018-11-22 02:20:00+00:00,233.4547,5.9,12.81,47.84626,-54.09684
2018-11-22 02:30:00+00:00,225.2614,5.9,12.81,47.84626,-54.09684
2018-11-22 02:40:00+00:00,220.6314,5.9,12.81,47.84626,-54.09684
2018-11-22 02:50:00+00:00,217.2831,5.9,12.81,47.84626,-54.09684
2018-11-22 03:00:00+00:00,209.0281,5.9,12.73,47.84626,-54.09684
2018-11-22 03:10:00+00:00,202.4964,5.9,12.65,47.84626,-54.09684
2018-11-22 03:20:00+00:00,199.2465,5.9,12.81,47.84626,-54.09684
2018-11-22 03:30:00+00:00,192.3031,5.88,12.81,47.84626,-54.09684
2018-11-22 03:40:00+00:00,188.0965,5.8,12.81,47.84626,-54.09684
2018-11-22 03:50:00+00:00,189.4531,5.8,12.81,47.84626,-54.09684
2018-11-22 04:00:00+00:00,187.9548,5.7,12.73,47.84626,-54.09684
2018-11-22 04:10:00+00:00,188.7015,5.74,12.65,47.84626,-54.09684
2018-11-22 04:20:00+00:00,191.5898,5.76,12.73,47.84626,-54.09684
2018-11-22 04:30:00+00:00,195.1314,5.73,12.81,47.84626,-54.09684
2018-11-22 04:40:00+00:00,199.2231,5.7,12.81,47.84626,-54.09684
2018-11-22 04:50:00+00:00,206.0998,5.7,12.81,47.84626,-54.09684
2018-11-22 05:00:00+00:00,209.8381,5.68,12.73,47.84626,-54.09684
2018-11-22 05:10:00+00:00,212.1648,5.69,12.65,47.84626,-54.09684
2018-11-22 05:20:00+00:00,220.3764,5.67,12.73,47.84626,-54.09684
2018-11-22 05:30:00+00:00,223.3281,5.68,12.81,47.84626,-54.09684
2018-11-22 05:40:00+00:00,225.9698,5.67,12.81,47.84626,-54.09684
2018-11-22 05:50:00+00:00,230.7264,5.6,12.81,47.84626,-54.09684
2018-11-22 06:00:00+00:00,235.9114,5.6,12.73,47.84626,-54.09684
2018-11-22 06:10:00+00:00,235.9997,5.5,12.65,47.84626,-54.09684
2018-11-22 06:20:00+00:00,238.4481,5.49,12.73,47.84626,-54.09684
2018-11-22 06:30:00+00:00,250.113,5.48,12.73,47.84626,-54.09684
2018-11-22 06:40:00+00:00,262.4998,5.41,12.81,47.84626,-54.09684
2018-11-22 06:50:00+00:00,262.6964,5.4,12.81,47.84626,-54.09684
2018-11-22 07:00:00+00:00,262.3297,5.3,12.73,47.84626,-54.09684
2018-11-22 07:10:00+00:00,272.1514,5.3,12.65,47.84626,-54.09684
2018-11-22 07:20:00+00:00,281.5697,5.27,12.73,47.84626,-54.09684
2018-11-22 07:30:00+00:00,284.5897,5.62,12.73,47.84626,-54.09684
2018-11-22 07:40:00+00:00,288.3781,5.56,12.81,47.84626,-54.09684
2018-11-22 07:50:00+00:00,298.528,5.69,12.81,47.84626,-54.09684
2018-11-22 08:00:00+00:00,308.0046,5.5,12.73,47.84626,-54.09684
2018-11-22 08:10:00+00:00,310.3947,5.46,12.65,47.84626,-54.09684
2018-11-22 08:20:00+00:00,317.4813,5.8,12.73,47.84626,-54.09684
2018-11-22 08:30:00+00:00,324.778,5.8,12.73,47.84626,-54.09684
2018-11-22 08:40:00+00:00,334.8913,5.82,12.81,47.84626,-54.09684
2018-11-22 08:50:00+00:00,342.4896,5.84,12.81,47.84626,-54.09684
2018-11-22 09:00:00+00:00,352.2346,5.85,12.73,47.84626,-54.09684
2018-11-22 09:10:00+00:00,365.3696,5.87,12.65,47.84626,-54.09684
2018-11-22 09:20:00+00:00,374.2496,5.88,12.73,47.84626,-54.09684
2018-11-22 09:30:00+00:00,375.5312,5.87,12.73,47.84626,-54.09684
2018-11-22 09:40:00+00:00,378.7064,5.86,12.81,47.84626,-54.09684
2018-11-22 09:50:00+00:00,385.7912,5.86,12.81,47.84626,-54.09684
2018-11-22 10:00:00+00:00,390.2963,5.87,12.73,47.84626,-54.09684
2018-11-22 10:10:00+00:00,399.108,5.89,12.65,47.84626,-54.09684
2018-11-22 10:20:00+00:00,400.6112,5.87,12.73,47.84626,-54.09684
2018-11-22 10:30:00+00:00,403.6495,5.86,12.73,47.84626,-54.09684
2018-11-22 10:40:00+00:00,410.9962,5.85,12.81,47.84626,-54.09684
2018-11-22 10:50:00+00:00,412.0879,5.8,12.81,47.84626,-54.09684
2018-11-22 11:00:00+00:00,410.6561,5.8,12.73,47.84626,-54.09684
2018-11-22 11:10:00+00:00,413.1229,5.8,12.65,47.84626,-54.09684
2018-11-22 11:20:00+00:00,414.0363,5.8,12.73,47.84626,-54.09684
2018-11-22 11:30:00+00:00,415.5629,5.78,12.73,47.84626,-54.09684
2018-11-22 11:40:00+00:00,406.0179,5.6,12.81,47.84626,-54.09684
2018-11-22 11:50:00+00:00,394.5295,5.6,12.81,47.84626,-54.09684
2018-11-22 12:00:00+00:00,397.4062,5.81,12.73,47.84626,-54.09684
2018-11-22 12:10:00+00:00,402.9261,5.8,12.65,47.84626,-54.09684
2018-11-22 12:20:00+00:00,393.6163,5.8,12.73,47.84626,-54.09684
2018-11-22 12:30:00+00:00,390.8113,5.83,12.73,47.84626,-54.09684
2018-11-22 12:40:00+00:00,395.4445,5.84,12.81,47.84626,-54.09684
2018-11-22 12:50:00+00:00,387.7697,5.79,12.81,47.84626,-54.09684
2018-11-22 13:00:00+00:00,374.3279,5.8,12.73,47.84626,-54.09684
2018-11-22 13:10:00+00:00,372.8079,5.89,12.65,47.84626,-54.09684
2018-11-22 13:20:00+00:00,363.698,5.8,12.73,47.84626,-54.09684
2018-11-22 13:30:00+00:00,347.8263,5.6,12.73,47.84626,-54.09684
2018-11-22 13:40:00+00:00,340.3063,5.6,12.81,47.84626,-54.09684
2018-11-22 13:50:00+00:00,332.4063,5.64,12.81,47.84626,-54.09684
2018-11-22 14:00:00+00:00,324.5296,5.75,12.73,47.84626,-54.09684
2018-11-22 14:10:00+00:00,316.0397,5.79,12.65,47.84626,-54.09684
2018-11-22 14:20:00+00:00,309.863,5.79,12.73,47.84626,-54.09684
2018-11-22 14:30:00+00:00,303.9263,5.73,12.73,47.84626,-54.09684
2018-11-22 14:40:00+00:00,293.473,5.7,12.81,47.84626,-54.09684
2018-11-22 14:50:00+00:00,280.173,5.68,12.81,47.84626,-54.09684
2018-11-22 15:00:00+00:00,272.6347,5.4,12.73,47.84626,-54.09684
2018-11-22 15:10:00+00:00,268.8314,5.43,12.65,47.84626,-54.09684
2018-11-22 15:20:00+00:00,260.0147,5.6,12.81,47.84626,-54.09684
2018-11-22 15:30:00+00:00,250.7464,5.58,12.81,47.84626,-54.09684
2018-11-22 15:40:00+00:00,245.5615,5.59,12.81,47.84626,-54.09684
2018-11-22 15:50:00+00:00,241.7464,5.5,12.81,47.84626,-54.09684
2018-11-22 16:00:00+00:00,233.8265,5.41,12.81,47.84626,-54.09684
2018-11-22 16:10:00+00:00,228.0248,5.6,12.73,47.84626,-54.09684
2018-11-22 16:20:00+00:00,227.5665,5.6,12.81,47.84626,-54.09684
2018-11-22 16:30:00+00:00,224.2431,5.6,12.89,47.84626,-54.09684
2018-11-22 16:40:00+00:00,222.3081,5.6,12.89,47.84626,-54.09684
2018-11-22 16:50:00+00:00,228.6297,5.58,12.97,47.84626,-54.09684
2018-11-22 17:00:00+00:00,231.7998,5.5,12.89,47.84626,-54.09684
2018-11-22 17:10:00+00:00,231.8297,5.59,12.81,47.84626,-54.09684
2018-11-22 17:20:00+00:00,230.5998,5.64,12.89,47.84626,-54.09684
2018-11-22 17:30:00+00:00,231.1331,5.69,12.89,47.84626,-54.09684
2018-11-22 17:40:00+00:00,230.7347,5.6,12.97,47.84626,-54.09684
2018-11-22 17:50:00+00:00,231.4414,5.57,13.21,47.84626,-54.09684
2018-11-22 18:00:00+00:00,231.9964,5.5,13.37,47.84626,-54.09684
2018-11-22 18:10:00+00:00,235.8165,5.5,13.37,47.84626,-54.09684
2018-11-22 18:20:00+00:00,235.8748,5.56,13.44,47.84626,-54.09684
2018-11-22 18:30:00+00:00,237.6214,5.54,13.44,47.84626,-54.09684
2018-11-22 18:40:00+00:00,242.2381,5.59,13.53,47.84626,-54.09684
2018-11-22 18:50:00+00:00,249.1764,5.6,13.6,47.84626,-54.09684
2018-11-22 19:00:00+00:00,253.7864,5.63,13.53,47.84626,-54.09684
2018-11-22 19:10:00+00:00,259.123,5.68,13.29,47.84626,-54.09684
2018-11-22 19:20:00+00:00,265.0998,5.7,13.29,47.84626,-54.09684
2018-11-22 19:30:00+00:00,269.6564,5.7,13.29,47.84626,-54.09684
2018-11-22 19:40:00+00:00,272.4114,5.7,13.29,47.84626,-54.09684
2018-11-22 19:50:00+00:00,275.5897,5.68,13.21,47.84626,-54.09684
2018-11-22 20:00:00+00:00,279.848,5.68,13.13,47.84626,-54.09684
2018-11-22 20:10:00+00:00,287.5763,5.7,13.05,47.84626,-54.09684
2018-11-22 20:20:00+00:00,299.1063,5.7,13.05,47.84626,-54.09684
2018-11-22 20:30:00+00:00,306.6764,5.7,13.05,47.84626,-54.09684
2018-11-22 20:40:00+00:00,313.488,5.7,13.05,47.84626,-54.09684
2018-11-22 20:50:00+00:00,325.4396,5.7,13.05,47.84626,-54.09684
2018-11-22 21:00:00+00:00,334.8729,5.7,12.97,47.84626,-54.09684
2018-11-22 21:10:00+00:00,335.8013,5.7,12.89,47.84626,-54.09684
2018-11-22 21:20:00+00:00,342.5447,5.71,12.97,47.84626,-54.09684
2018-11-22 21:30:00+00:00,355.2496,5.73,12.97,47.84626,-54.09684
2018-11-22 21:40:00+00:00,357.5164,5.76,12.97,47.84626,-54.09684
2018-11-22 21:50:00+00:00,359.3713,5.77,12.97,47.84626,-54.09684
2018-11-22 22:00:00+00:00,369.928,5.77,12.89,47.84626,-54.09684
2018-11-22 22:10:00+00:00,376.2196,5.79,12.81,47.84626,-54.09684
2018-11-22 22:20:00+00:00,380.6029,5.79,12.89,47.84626,-54.09684
2018-11-22 22:30:00+00:00,384.3962,5.78,12.89,47.84626,-54.09684
2018-11-22 22:40:00+00:00,387.5461,5.79,12.89,47.84626,-54.09684
2018-11-22 22:50:00+00:00,382.7879,5.79,12.89,47.84626,-54.09684
2018-11-22 23:00:00+00:00,382.0363,5.79,12.81,47.84626,-54.09684
2018-11-22 23:10:00+00:00,390.0679,5.79,12.73,47.84626,-54.09684
2018-11-22 23:20:00+00:00,383.6346,5.8,12.81,47.84626,-54.09684
2018-11-22 23:30:00+00:00,375.9196,5.7,12.81,47.84626,-54.09684
2018-11-22 23:40:00+00:00,380.4796,5.7,12.81,47.84626,-54.09684
2018-11-22 23:50:00+00:00,381.343,5.2,12.81,47.84626,-54.09684
